ATLAS 5 CENTAUR DEB, 43958

Orbit data source: Space-Track

ATLAS 5 CENTAUR DEB, 43958 is space debris in HEO originally from a launch on Wed, 17 Sep 2014 UTC launched from the Air Force Eastern Test Range (AFETR). Debris objects in space refer to the collection of defunct objects orbiting the Earth. Examples of debris include non-operational satellites, rocket bodies, and fragments generated from explosions, collisions, or faulty payload assembly.

Loading next visibility...
Identifier
43958, 2014-055M
Orbit
HEO
Country
Flag of USUS
Related business
Flag of USUnited Launch Alliance/Lockheed Martin (US)
Manufacturer
Unknown
Mission
Spacecraft
Bus & Motor
Unknown
Mass
Unknown
Launch date (UTC)
2014-09-17 (12 years ago)
Launch vehicle
Unknown
Launch site
Air Force Eastern Test Range (AFETR)
Object type
Payload
Rocket body
Debris
Shape & HBR
Unknown shape, 1.1 m
Radar Cross Section
Medium (>0.1 m² and <1 m²)

Expand to show TLE details & history
Last TLE update: 2 days ago

TLE from 2 days ago
0 ATLAS 5 CENTAUR DEB
1 43958U 14055M   26170.95386917 -.00000052  00000-0  00000-0 0  9996
2 43958  20.4083 135.0844 4675874 181.3434 176.7657  1.89317581 53952
Epoch: 2026-06-19T22:53Z
TLE epoch observation values (Epoch: 2026-06-19T22:53:34.296Z)
Latitude
-0.00002°
Longitude
-116.5206°
Altitude
34,122.044 km
Speed
2.29 km/s
True Right ascension
09h 00m 11s
True Declination
0° 00' 00"
Sunlit
Object was in daylight at epoch
Visualization orbit readout
Latitude
Unknown
Longitude
Unknown
Altitude
Unknown
Speed
Unknown
Apparent Right ascension
Unknown
Apparent Declination
Unknown
Sunlit
N/A
Visualization observer readout
Local Sidereal Time
21:39:09
Azimuth
Unknown
Elevation
Unknown
Doppler factor
Unknown
Orbital elements
Apogee altitude
34,133.069 km
Perigee altitude
8,318.553 km
Semi-major axis
27,603.948 km
Eccentricity
0.46759
Inclination
20.4083°
RAAN
135.0844°
Arg. of periapsis
181.3434°
True anomaly
178.6724°
Mean anomaly
176.7657°
Eccentric anomaly
177.79601°
Mean motion
0.47325 °/min
Orbital period
760.7 mins
BSTAR
0
Loading maneuver chart data...
Computing Atmospheric mass density...

Documentation

Showing up to 5 results
|